Gypsum, CO

6:18 AM MST on December 11, 2016 (GMT -0700)
Eagle County Regional

Weather History for KEGE - May, 2013

Change the Weather History Date:

Friday, May 10, 2013

  Actual Average Record
Temperature  
Mean Temperature 48 °F -  
Max Temperature 62 °F 67 °F 81 °F (1962)
Min Temperature 33 °F 33 °F 20 °F (1950)
Degree Days  
Heating Degree Days 18    
Moisture  
Dew Point 33 °F    
Average Humidity 64    
Maximum Humidity 93    
Minimum Humidity 24    
Precipitation  
Precipitation 0.00 in - - ()
Sea Level Pressure  
Sea Level Pressure 30.25 in    
Wind  
Wind Speed 3 mph (ENE)    
Max Wind Speed 20 mph    
Max Gust Speed 25 mph    
Visibility 10 miles    
Events      
Averages and records for this station are not official NWS values.
T = Trace of Precipitation, MM = Missing Value Source: NWS Daily Summary

Daily Weather History Graph

Daily Weather History Graph

Search for Another Location

Airport or City:

Trip Planner

Search our weather history database for the weather conditions in past years. The results will help you decide how hot, cold, wet, or windy it might be!

Date:

Astronomy

May. 10, 2013 Rise Set
Actual Time 5:57 AM MDT 8:10 PM MDT
Civil Twilight 5:27 AM MDT 8:40 PM MDT
Nautical Twilight 4:51 AM MDT 9:17 PM MDT
Astronomical Twilight 4:10 AM MDT 9:58 PM MDT
Moon 6:24 AM MDT (5/10) 9:02 PM MDT (5/10)
Length of Visible Light 15h 13m
Length of Day
14h 12m
New Moon, 1% of the Moon is Illuminated
May 10
New Moon
May 17
First Quarter
May 24
Full
May 31
Last Quarter
Jun 8
New

Hourly Weather History & Observations

Time (MDT) Temp. Windchill Dew Point Humidity Pressure Visibility Wind Dir Wind Speed Gust Speed Precip Events Conditions
12:15 AM 41.0 °F - 35.6 °F 81% 30.21 in 10.0 mi Calm Calm - N/A   Clear
12:35 AM 41.0 °F - 35.6 °F 81% 30.22 in 10.0 mi Calm Calm - N/A   Clear
12:55 AM 39.2 °F 37.0 °F 35.6 °F 87% 30.22 in 10.0 mi ESE 3.5 mph - N/A   Clear
1:15 AM 39.2 °F - 35.6 °F 87% 30.22 in 10.0 mi Calm Calm - N/A   Clear
1:35 AM 37.4 °F 34.9 °F 35.6 °F 93% 30.23 in 10.0 mi East 3.5 mph - N/A   Clear
1:55 AM 37.4 °F 32.8 °F 35.6 °F 93% 30.22 in 10.0 mi ESE 5.8 mph - N/A   Clear
2:15 AM 37.4 °F - 33.8 °F 87% 30.23 in 10.0 mi Calm Calm - N/A   Clear
2:35 AM 37.4 °F 34.9 °F 33.8 °F 87% 30.23 in 10.0 mi East 3.5 mph - N/A   Clear
2:55 AM 35.6 °F 32.8 °F 33.8 °F 93% 30.23 in 10.0 mi SE 3.5 mph - N/A   Clear
3:15 AM 35.6 °F - 33.8 °F 93% 30.23 in 10.0 mi Calm Calm - N/A   Clear
3:35 AM 35.6 °F - 33.8 °F 93% 30.24 in 10.0 mi Calm Calm - N/A   Clear
3:55 AM 35.6 °F 32.8 °F 33.8 °F 93% 30.24 in 10.0 mi East 3.5 mph - N/A   Clear
4:15 AM 35.6 °F - 33.8 °F 93% 30.24 in 10.0 mi Calm Calm - N/A   Clear
4:55 AM 33.8 °F 28.6 °F 32.0 °F 93% 30.24 in 10.0 mi East 5.8 mph - N/A   Clear
5:15 AM 33.8 °F 30.8 °F 32.0 °F 93% 30.24 in 10.0 mi SE 3.5 mph - N/A   Clear
5:35 AM 33.8 °F - 32.0 °F 93% 30.25 in 10.0 mi Calm Calm - N/A   Clear
6:15 AM 33.8 °F - 30.2 °F 87% 30.26 in 10.0 mi Calm Calm - N/A   Clear
6:35 AM 33.8 °F - 32.0 °F 93% 30.27 in 10.0 mi Calm Calm - N/A   Clear
7:50 AM 39.2 °F - 35.6 °F 87% 30.28 in 10.0 mi Calm Calm - N/A   Partly Cloudy
8:50 AM 44.6 °F - 35.6 °F 71% 30.28 in 10.0 mi Calm Calm - N/A   Partly Cloudy
9:50 AM 46.4 °F - 35.6 °F 66% 30.27 in 10.0 mi Calm Calm - N/A   Partly Cloudy
11:50 AM 57.2 °F - 33.8 °F 41% 30.24 in 10.0 mi SSW 4.6 mph - N/A   Scattered Clouds
12:50 PM 55.4 °F - 28.4 °F 36% 30.24 in 10.0 mi South 9.2 mph - N/A   Scattered Clouds
1:50 PM 55.4 °F - 28.4 °F 36% 30.23 in 10.0 mi Calm Calm - N/A   Scattered Clouds
2:50 PM 57.2 °F - 32.0 °F 38% 30.24 in 10.0 mi North 15.0 mph 23.0 mph N/A   Scattered Clouds
3:50 PM 60.8 °F - 30.2 °F 31% 30.21 in 10.0 mi West 4.6 mph - N/A   Scattered Clouds
4:50 PM 60.8 °F - 28.4 °F 29% 30.21 in 10.0 mi East 6.9 mph - N/A   Scattered Clouds
5:50 PM 60.8 °F - 28.4 °F 29% 30.21 in 10.0 mi North 19.6 mph 25.3 mph N/A   Scattered Clouds
6:50 PM 62.6 °F - 24.8 °F 24% 30.22 in 10.0 mi NNW 9.2 mph - N/A   Scattered Clouds
6:55 PM 60.8 °F - 24.8 °F 25% 30.22 in 10.0 mi NNW 12.7 mph - N/A   Partly Cloudy
7:15 PM 60.8 °F - 28.4 °F 29% 30.22 in 10.0 mi NNW 8.1 mph - N/A   Clear
7:35 PM 60.8 °F - 28.4 °F 29% 30.23 in 10.0 mi NNW 9.2 mph 16.1 mph N/A   Clear
7:55 PM 59.0 °F - 28.4 °F 31% 30.24 in 10.0 mi North 8.1 mph - N/A   Scattered Clouds
8:15 PM 57.2 °F - 28.4 °F 33% 30.24 in 10.0 mi North 4.6 mph - N/A   Partly Cloudy
8:35 PM 55.4 °F - 33.8 °F 44% 30.25 in 10.0 mi East 3.5 mph - N/A   Clear
8:55 PM 53.6 °F - 33.8 °F 47% 30.26 in 10.0 mi SE 4.6 mph - N/A   Clear
9:15 PM 51.8 °F - 33.8 °F 50% 30.27 in 10.0 mi East 6.9 mph - N/A   Clear
9:35 PM 50.0 °F - 35.6 °F 58% 30.29 in 10.0 mi East 4.6 mph - N/A   Clear
9:55 PM 51.8 °F - 33.8 °F 50% 30.30 in 10.0 mi Calm Calm - N/A   Clear
10:15 PM 50.0 °F - 33.8 °F 54% 30.31 in 10.0 mi ENE 4.6 mph - N/A   Clear
10:35 PM 46.4 °F 44.3 °F 35.6 °F 66% 30.32 in 10.0 mi ESE 4.6 mph - N/A   Clear
10:55 PM 46.4 °F 45.2 °F 33.8 °F 62% 30.32 in 10.0 mi NE 3.5 mph - N/A   Clear
11:15 PM 44.6 °F 42.2 °F 33.8 °F 66% 30.33 in 10.0 mi ENE 4.6 mph - N/A   Clear
11:35 PM 44.6 °F - 33.8 °F 66% 30.34 in 10.0 mi Calm Calm - N/A   Clear
11:55 PM 42.8 °F 41.1 °F 33.8 °F 70% 30.35 in 10.0 mi SE 3.5 mph - N/A   Clear